[[{"header":{"parameterUnit":"m.s-1","parameterCategory":1,"la1":30.2991,"la2":30.254,"lo1":-89.0895,"lo2":-89.0444,"dy":0.0017,"dx":0.0017,"nx":28,"ny":28,"refTime":"2023-10-23T03:00:00:Z","depth":0,"parameterNumber":2,"parameterNumberName":"U-component_of_WINDS"},"data":[0,0,0,0,0,0,0,0,0,0,0,0,0,0,0,0,0,0,0,0,0,0,0,0,0,0,0,0,0,0,0,0,0,0,0,0,0,0,0,0,0,0,0,0,0,0,0,0,0,0,0,0,0,0,0,0,0,0,-6.5205,-6.5206,0,-6.5272,-6.5272,-6.5273,-6.5204,-6.5201,-6.5198,-6.5196,-6.5261,-6.5265,-6.5269,0,0,0,0,0,0,0,0,0,0,0,0,0,-6.5019,-6.5023,-6.5205,-6.5206,-6.5207,-6.5271,-6.5272,-6.5273,-6.5204,-6.5201,-6.5198,-6.5195,-6.5259,-6.5264,-6.5269,0,0,0,0,0,0,0,0,0,0,0,0,0,-6.5094,-6.5024,-6.5205,-6.518,-6.5179,-6.5271,-6.5272,-6.5273,-6.5205,-6.5201,-6.5197,-6.5193,-6.5258,-6.5264,-6.527,-6.5389,0,0,-6.529,-6.5292,0,0,0,0,0,0,0,0,-6.509,-6.5101,-6.5183,-6.5182,-6.5181,-6.5225,-6.523,-6.5312,-6.5206,-6.5195,-6.5196,-6.5191,-6.5252,-6.5259,-6.528,-6.5392,-6.5395,-6.529,-6.5294,-6.5297,-6.5298,0,0,0,0,0,0,0,-6.5085,-6.5097,-6.5231,-6.5185,-6.5183,-6.5166,-6.5172,-6.5245,-6.5245,-6.5196,-6.5191,-6.52,-6.5251,-6.5274,-6.5281,-6.5396,-6.529,-6.5296,-6.5299,-6.5302,-6.5612,-6.5616,0,0,0,0,0,0,-6.5082,-6.5094,-6.5229,-6.5233,-6.5125,-6.5173,-6.5179,-6.5215,-6.5244,-6.5245,-6.5203,-6.5196,-6.5265,-6.5273,-6.5283,-6.5425,-6.5297,-6.5302,-6.5306,-6.5608,-6.5613,-6.5618,0,0,0,0,0,0,-6.5079,-6.5095,-6.5227,-6.5162,-6.5178,-6.518,-6.5221,-6.5218,-6.5241,-6.525,-6.5249,-6.5227,-6.5262,-6.5274,-6.5364,-6.5426,-6.5305,-6.5311,-6.5602,-6.5609,-6.5615,-6.5709,0,0,0,0,0,0,-6.5074,-6.5094,-6.5139,-6.5164,-6.5182,-6.5307,-6.5224,-6.5223,-6.5253,-6.5245,-6.5272,-6.5273,-6.526,-6.5355,-6.537,-6.5432,-6.5316,-6.5597,-6.5605,-6.5613,-6.5701,-6.5718,-6.5734,0,0,0,0,0,-6.5067,-6.5162,-6.5142,-6.5159,-6.5238,-6.5311,-6.5321,-6.5305,-6.5258,-6.5304,-6.531,-6.5272,-6.5418,-6.5365,-6.5381,-6.5446,-6.5593,-6.5603,-6.5613,-6.5693,-6.5715,-6.5733,0,0,0,0,0,0,-6.5143,-6.5165,-6.5142,-6.5248,-6.5279,-6.5299,-6.5355,-6.5328,-6.5371,-6.5361,-6.534,-6.5346,-6.5442,-6.5454,-6.5395,-6.5564,-6.5497,-6.5511,-6.5553,-6.5574,-6.559,-6.5584,-6.5321,0,0,0,0,0,-6.5172,-6.523,-6.5246,-6.5338,-6.5354,-6.5353,-6.5384,-6.537,-6.5399,-6.5411,-6.5423,-6.5453,-6.5506,-6.5541,-6.5589,-6.5703,-6.5708,-6.5756,-6.5773,-6.5786,-6.5798,-6.586,-6.5882,-6.5651,-6.565,-6.565,0,0,-6.5232,-6.5252,-6.5289,-6.5353,-6.5375,-6.5435,-6.5364,-6.543,-6.5474,-6.5421,-6.5507,-6.5518,-6.555,-6.5653,-6.5698,-6.5665,-6.5864,-6.5799,-6.581,-6.5814,-6.5872,-6.5894,-6.5914,-6.5657,-6.5656,-6.5655,0,0,-6.5373,-6.5394,-6.5473,-6.5497,-6.5531,-6.553,-6.555,-6.5576,-6.5581,-6.5668,-6.563,-6.5682,-6.5773,-6.5798,-6.5823,-6.5977,-6.5944,-6.5994,-6.6079,-6.614,-6.6158,-6.6174,-6.6229,-6.6249,-6.6006,-6.6006,-6.6006,0,-6.5443,-6.5532,-6.5517,-6.5587,-6.5616,-6.5574,-6.5654,-6.5678,-6.5726,-6.5748,-6.571,-6.5825,-6.5844,-6.5952,-6.5991,-6.6012,-6.6034,-6.5989,-6.6157,-6.6173,-6.6187,-6.624,-6.626,-6.6012,-6.6011,-6.6011,-6.601,0,-6.5617,-6.568,-6.574,-6.579,-6.5827,-6.5901,-6.5897,-6.5937,-6.5921,-6.5924,-6.6014,-6.6035,-6.6088,-6.6114,-6.6098,-6.6221,-6.6199,-6.616,-6.6092,-6.6215,-6.6264,-6.6284,-6.602,-6.6018,-6.6016,-6.6015,0,0,-6.5803,-6.5846,-6.5868,-6.5891,-6.5928,-6.5976,-6.605,-6.6104,-6.6138,-6.6174,-6.6235,-6.6315,-6.628,-6.6308,-6.6295,-6.6349,-6.6471,-6.6303,-6.6304,-6.6333,-6.6608,-6.6637,-6.666,-6.6451,-6.6454,-6.6457,-6.6606,0,-6.5944,-6.6072,-6.6062,-6.6183,-6.6242,-6.6204,-6.6269,-6.6299,-6.6305,-6.6355,-6.6362,-6.6419,-6.6368,-6.6385,-6.6437,-6.6445,-6.6526,-6.6434,-6.6506,-6.6509,-6.6498,-6.6685,-6.6715,-6.6853,-6.6624,-6.6628,-6.663,0,-6.6124,-6.6168,-6.6296,-6.6327,-6.6351,-6.6409,-6.6458,-6.6507,-6.6541,-6.6542,-6.6576,-6.6555,-6.663,-6.6563,-6.6666,-6.6604,-6.6633,-6.6642,-6.6647,-6.6652,-6.6575,-6.6693,-6.6897,-6.6917,-6.666,-6.6657,-6.6655,0,-6.6246,-6.6338,-6.6427,-6.6448,-6.6485,-6.6527,-6.6545,-6.6575,-6.6609,-6.6653,-6.6674,-6.6726,-6.6754,-6.6795,-6.6788,-6.674,-6.6894,-6.6825,-6.6896,-6.6896,-6.6927,-6.6925,-6.7137,-6.695,-6.695,-6.6949,-6.6949,0,-6.6403,-6.6482,-6.6482,-6.6536,-6.6625,-6.6614,-6.6701,-6.6714,-6.6742,-6.6799,-6.677,-6.6823,-6.6813,-6.6866,-6.6862,-6.6949,-6.6962,-6.6964,-6.6962,-6.6966,-6.6965,-6.6983,-6.6972,-6.6955,-6.6953,-6.6952,-6.6951,0,-6.6553,-6.6556,-6.665,-6.668,-6.6689,-6.6753,-6.6778,-6.683,-6.6835,-6.6907,-6.6923,-6.6932,-6.6994,-6.6993,-6.7062,-6.706,-6.7166,-6.7153,-6.7154,-6.7151,-6.7221,-6.7215,-6.7451,-6.7481,-6.7275,-6.7277,-6.7279,0,-6.6652,-6.6712,-6.675,-6.6786,-6.6807,-6.6866,-6.6901,-6.6893,-6.6931,-6.6976,-6.7023,-6.7083,-6.7129,-6.7231,-6.7242,-6.7297,-6.7284,-6.7363,-6.7291,-6.7294,-6.7284,-6.728,-6.7286,-6.7376,-6.7379,-6.738,-6.7382,0,-6.6827,-6.6827,-6.6879,-6.6933,-6.6976,-6.7018,-6.7056,-6.7088,-6.7084,-6.7129,-6.7192,-6.7229,-6.7303,-6.7362,-6.7415,-6.7433,-6.7407,-6.7405,-6.7424,-6.7428,-6.7426,-6.7427,-6.7191,-6.7399,-6.7397,-6.7396,-6.7395,-6.7394,-6.6954,-6.7006,-6.7042,-6.7101,-6.713,-6.7168,-6.7218,-6.7232,-6.7285,-6.7344,-6.7337,-6.7409,-6.7444,-6.7512,-6.7535,-6.7591,-6.7563,-6.7591,-6.7597,-6.7604,-6.7611,-6.7419,-6.7601,-6.76,-6.76,-6.76,-6.7599,0,-6.7127,-6.7149,-6.7204,-6.726,-6.7307,-6.7282,-6.7324,-6.7365,-6.7429,-6.7464,-6.7512,-6.7587,-6.7645,-6.7664,-6.7721,-6.7762,-6.7752,-6.7777,-6.7773,-6.7778,-6.7633,-6.7611,-6.7785,-6.7785,-6.7785,-6.7785,-6.7784,-6.7784,-6.7222,-6.731,-6.7315,-6.7418,-6.7439,-6.7509,-6.7536,-6.7571,-6.7599,-6.7684,-6.7733,-6.7746,-6.7775,-6.7834,-6.7887,-6.7891,-6.7913,-6.7943,-6.7942,-6.7806,-6.7788,-6.777,-6.7748,-6.7948,-6.7948,-6.8081,-6.8083,-6.8083]},{"header":{"parameterUnit":"m.s-1","parameterCategory":1,"la1":30.2991,"la2":30.254,"lo1":-89.0895,"lo2":-89.0444,"dy":0.0017,"dx":0.0017,"nx":28,"ny":28,"refTime":"2023-10-23T03:00:00:Z","depth":0,"parameterNumber":3,"parameterNumberName":"V-component_of_WINDS"},"data":[0,0,0,0,0,0,0,0,0,0,0,0,0,0,0,0,0,0,0,0,0,0,0,0,0,0,0,0,0,0,0,0,0,0,0,0,0,0,0,0,0,0,0,0,0,0,0,0,0,0,0,0,0,0,0,0,0,0,2.8922,2.8922,0,2.8892,2.8892,2.8892,2.8849,2.8848,2.8847,2.8846,2.8815,2.8815,2.8815,0,0,0,0,0,0,0,0,0,0,0,0,0,2.8942,2.8942,2.8922,2.8922,2.8922,2.8892,2.8892,2.8892,2.8849,2.8848,2.8847,2.8846,2.8815,2.8815,2.8815,0,0,0,0,0,0,0,0,0,0,0,0,0,2.8925,2.8942,2.8922,2.8897,2.8894,2.8893,2.8892,2.8892,2.8849,2.8848,2.8847,2.8846,2.8815,2.8815,2.8815,2.8836,0,0,2.8814,2.8814,0,0,0,0,0,0,0,0,2.8926,2.8924,2.8901,2.8898,2.8895,2.8873,2.8888,2.8873,2.8849,2.8866,2.8846,2.8845,2.8835,2.8833,2.883,2.8835,2.8833,2.8814,2.8814,2.8814,2.8814,0,0,0,0,0,0,0,2.8927,2.8925,2.891,2.89,2.8897,2.8887,2.8883,2.8885,2.8857,2.8864,2.8861,2.8858,2.8834,2.8831,2.8829,2.8833,2.8814,2.8814,2.8814,2.8814,2.8855,2.8856,0,0,0,0,0,0,2.8932,2.8927,2.8911,2.891,2.8908,2.8887,2.8883,2.8881,2.8857,2.8852,2.8859,2.8856,2.8831,2.8829,2.8828,2.8853,2.8814,2.8814,2.8814,2.8853,2.8855,2.8856,0,0,0,0,0,0,2.8933,2.8931,2.8913,2.8917,2.8914,2.8888,2.8887,2.8881,2.8878,2.8853,2.8848,2.8861,2.883,2.8828,2.8835,2.8851,2.8814,2.8814,2.8852,2.8854,2.8856,2.8901,0,0,0,0,0,0,2.8934,2.8932,2.894,2.8918,2.8914,2.892,2.8887,2.8882,2.8878,2.8874,2.8854,2.8849,2.8829,2.8835,2.8835,2.885,2.8813,2.8851,2.8853,2.8855,2.8898,2.8904,2.891,0,0,0,0,0,2.8935,2.8953,2.894,2.8939,2.8923,2.8921,2.8919,2.8896,2.888,2.8887,2.8871,2.885,2.8849,2.8836,2.8835,2.8851,2.8849,2.8852,2.8855,2.8896,2.8903,2.891,0,0,0,0,0,0,2.8977,2.895,2.8935,2.8947,2.8937,2.8914,2.8923,2.8904,2.8898,2.8895,2.8866,2.8862,2.8873,2.8862,2.8848,2.8871,2.8846,2.8849,2.8877,2.8884,2.889,2.8893,2.8813,0,0,0,0,0,2.8988,2.8989,2.8965,2.8978,2.8973,2.8949,2.8947,2.8931,2.8919,2.8914,2.8898,2.8888,2.8885,2.8884,2.888,2.8896,2.8892,2.8906,2.8912,2.8917,2.892,2.8929,2.8936,2.8865,2.8865,2.8865,0,0,2.901,2.8995,2.8998,2.8986,2.8976,2.8978,2.8946,2.8948,2.895,2.8914,2.892,2.8908,2.8894,2.8907,2.8911,2.8898,2.8938,2.892,2.8924,2.8925,2.8933,2.8939,2.8945,2.8867,2.8867,2.8866,0,0,2.9052,2.9041,2.9051,2.9042,2.9027,2.9011,2.9014,2.8994,2.8985,2.899,2.8964,2.8965,2.8961,2.8952,2.8947,2.8987,2.8968,2.8987,2.9017,2.9027,2.9032,2.9037,2.9053,2.9059,2.8989,2.899,2.899,0,2.9082,2.9084,2.9059,2.9064,2.906,2.9028,2.9039,2.9031,2.9016,2.9014,2.8999,2.8995,2.8983,2.8993,2.9003,2.9,2.9003,2.8989,2.9034,2.9038,2.9042,2.9057,2.9063,2.8992,2.8992,2.8992,2.8991,0,2.9122,2.9123,2.9133,2.9121,2.9117,2.9125,2.9102,2.9102,2.9085,2.9071,2.9077,2.9062,2.9055,2.9056,2.904,2.9065,2.9058,2.9039,2.9014,2.9052,2.9066,2.9071,2.8996,2.8995,2.8994,2.8993,0,0,2.919,2.9164,2.9168,2.9163,2.9144,2.9145,2.9152,2.9146,2.9147,2.9137,2.9143,2.9141,2.9123,2.9118,2.91,2.9109,2.9143,2.9089,2.9088,2.9101,2.9172,2.9187,2.9194,2.913,2.9131,2.9131,2.9174,0,2.923,2.924,2.9218,2.9234,2.9236,2.9206,2.9212,2.9202,2.9189,2.9188,2.9173,2.9173,2.9149,2.9146,2.9153,2.9138,2.9157,2.9134,2.9136,2.9136,2.9142,2.9201,2.9217,2.9258,2.9179,2.9179,2.918,0,2.9278,2.9272,2.9289,2.9271,2.9271,2.9276,2.927,2.9269,2.9257,2.9247,2.9242,2.9221,2.9227,2.9202,2.921,2.9195,2.9194,2.9187,2.9188,2.9188,2.9162,2.9205,2.927,2.9277,2.9188,2.9187,2.9187,0,2.9329,2.9325,2.9334,2.933,2.9309,2.9314,2.9305,2.9292,2.929,2.9284,2.9283,2.9277,2.9275,2.9271,2.925,2.9233,2.9261,2.9234,2.9254,2.9255,2.9262,2.9262,2.933,2.9259,2.9259,2.9259,2.9259,0,2.9377,2.9389,2.9357,2.9363,2.9375,2.935,2.9363,2.9351,2.934,2.9343,2.9316,2.932,2.9291,2.9292,2.9276,2.9286,2.9285,2.9277,2.9273,2.9281,2.9282,2.9281,2.9278,2.9261,2.926,2.926,2.926,0,2.9436,2.9416,2.9424,2.9404,2.9399,2.9409,2.9392,2.9397,2.9382,2.9387,2.9386,2.9363,2.9363,2.9341,2.9336,2.9325,2.9343,2.9333,2.9348,2.9345,2.9367,2.9366,2.9437,2.9446,2.9368,2.9369,2.937,0,2.9469,2.9478,2.9458,2.9459,2.9452,2.9453,2.9451,2.9426,2.9425,2.9413,2.9419,2.9417,2.9414,2.9415,2.9398,2.9395,2.9385,2.9411,2.9385,2.9393,2.9388,2.9388,2.939,2.9417,2.9418,2.9418,2.9419,0,2.953,2.952,2.9518,2.9513,2.9512,2.9507,2.95,2.9502,2.9474,2.9475,2.9475,2.9473,2.9468,2.9467,2.946,2.9451,2.9432,2.9427,2.9432,2.9441,2.945,2.9447,2.9365,2.9426,2.9425,2.9425,2.9424,2.9424,2.9579,2.9585,2.9573,2.9572,2.9565,2.9559,2.9563,2.9549,2.9548,2.9543,2.9528,2.9531,2.9519,2.9509,2.9502,2.9504,2.9491,2.9498,2.95,2.9502,2.9507,2.9448,2.9502,2.9502,2.9502,2.9502,2.9501,0,2.964,2.9631,2.963,2.9622,2.9622,2.9602,2.9594,2.9595,2.9598,2.9589,2.9587,2.9587,2.9586,2.9569,2.9565,2.9571,2.9561,2.9571,2.9571,2.957,2.9518,2.9515,2.9578,2.9578,2.9578,2.9578,2.9578,2.9578,2.9672,2.9683,2.9671,2.9678,2.9668,2.9671,2.9668,2.9663,2.9656,2.9658,2.9656,2.9645,2.9633,2.9629,2.9627,2.9622,2.9623,2.9636,2.9628,2.958,2.9573,2.9566,2.9563,2.9636,2.9636,2.968,2.9681,2.9681]}]]